Location: Granada Hills
(34.2650°N, 118.5220°W)
Time: 22:20:02
(UTC-07:00)

deb Kosmos-1763 - Visible Passes

Search period start: 25 March 2017 00:00
Search period end: 04 April 2017 00:00
Orbit: 500 x 514 km, 74.0° (Epoch: 24 March)

Date Brightness Start Highest point End Pass type
(mag) Time Alt. Az. Time Alt. Az. Time Alt. Az.
31 Mar 7.0 21:46:45 10° N 21:47:10 13° N 21:47:10 13° N visible
01 Apr 6.5 21:28:43 10° N 21:29:50 18° N 21:29:50 18° N visible
02 Apr 5.9 21:10:43 10° N 21:12:33 24° NNE 21:12:33 24° NNE visible
03 Apr 5.3 20:52:42 10° N 20:55:19 30° NE 20:55:19 30° NE visible
